Date String (YYYY-MM-DD hh:mm:ss) UTC,Instrument flags,absolute air pressure of the measurement (hPa),sample flow rate (lpm),inlet stack bypass flow (lpm),air temperature of the measurement (°C),ambient temperature measured by the external sensor (°C),aerosol sample conditioner tube jacket temperature (°C),OPC LED temperature (°C),internal box temperature (°C),relative humidity of the measurement (%),span deviation,mass concentration of particles derived from Lorenz-Mie calculation of OPC scattering (μg/m³),mass concentration of particles derived from Lorenz-Mie calculation of OPC scattering (μg/m³),mass concentration of particles derived from Lorenz-Mie calculation of OPC scattering (μg/m³)
DateTimeUTC,F1_M11,P_M11,Q1_M11,Q2_M11,T1_M11,T2_M11,T3_M11,T4_M11,T5_M11,U1_M11,ZSPAN_M11,X0_M11,X2_M11,X1_M11
2023-10-02 15:00:00,SystemResetWarning,0828.9,4.99,000.00,028.1,026.8,000.0,036.5,029.8,21.7,0000.0,0012.55,0004.45,0003.70
2023-10-02 15:01:00,SystemResetWarning,0829.0,5.00,000.00,028.1,026.8,000.0,036.5,029.8,21.6,0000.0,0011.90,0004.44,0003.71
2023-10-02 15:02:00,SystemResetWarning,0829.0,4.99,000.00,028.1,026.8,000.0,036.5,029.8,21.7,0000.0,0011.61,0004.44,0003.72
2023-10-02 15:03:00,SystemResetWarning,0829.1,5.00,000.00,028.1,026.9,000.0,036.5,029.8,21.7,0000.0,0012.15,0004.52,0003.73
2023-10-02 15:04:00,SystemResetWarning,0829.1,5.00,000.00,028.1,026.9,000.0,036.5,029.8,21.6,0000.0,0011.66,0004.55,0003.75
2023-10-02 15:05:00,SystemResetWarning,0829.1,5.00,000.00,028.1,026.9,000.0,036.5,029.9,21.5,0000.0,0010.97,0004.59,0003.77
2023-10-02 15:06:00,SystemResetWarning,0829.1,5.00,000.00,028.2,026.9,000.0,036.5,029.9,21.7,0000.0,0011.19,0004.62,0003.79
2023-10-02 15:07:00,SystemResetWarning,0829.1,5.00,000.00,028.2,026.9,000.0,036.5,029.9,21.8,0000.0,0011.53,0004.66,0003.80
2023-10-02 15:08:00,SystemResetWarning,0829.1,5.01,000.00,028.2,026.9,000.0,036.5,029.9,21.8,0000.0,0012.02,0004.71,0003.81
2023-10-02 15:09:00,SystemResetWarning,0829.1,5.00,000.00,028.2,027.0,000.0,036.6,029.9,21.7,0000.0,0011.74,0004.77,0003.83
2023-10-02 15:10:00,SystemResetWarning,0829.1,5.00,000.00,028.2,027.0,000.0,036.6,030.0,21.8,0000.0,0012.18,0004.84,0003.86
2023-10-02 15:11:00,SystemResetWarning,0829.1,5.00,000.00,028.2,027.0,000.0,036.6,030.0,21.7,0000.0,0012.82,0004.87,0003.88
2023-10-02 15:12:00,SystemResetWarning,0829.1,5.00,000.00,028.3,027.0,000.0,036.6,030.0,21.7,0000.0,0012.54,0004.88,0003.90
2023-10-02 15:13:00,SystemResetWarning,0829.2,4.99,000.00,028.3,027.0,000.0,036.6,030.0,21.7,0000.0,0012.54,0004.87,0003.91
2023-10-02 15:14:00,SystemResetWarning,0829.2,5.00,000.00,028.3,027.1,000.0,036.6,030.0,21.7,0000.0,0011.77,0004.93,0003.93
2023-10-02 15:15:00,SystemResetWarning,0829.3,5.00,000.00,028.3,027.1,000.0,036.6,030.0,21.7,0000.0,0011.67,0004.92,0003.94
2023-10-02 15:16:00,SystemResetWarning,0829.3,5.01,000.00,028.3,027.1,000.0,036.7,030.0,21.8,0000.0,0011.44,0004.93,0003.95
2023-10-02 15:17:00,SystemResetWarning,0829.3,5.01,000.00,028.3,027.0,000.0,036.7,030.0,22.0,0000.0,0011.28,0004.93,0003.96
2023-10-02 15:18:00,SystemResetWarning,0829.3,5.00,000.00,028.3,027.0,000.0,036.7,030.0,21.9,0000.0,0010.65,0004.95,0003.96
2023-10-02 15:19:00,SystemResetWarning,0829.3,5.00,000.00,028.3,027.0,000.0,036.7,030.0,22.0,0000.0,0010.17,0004.95,0003.97
2023-10-02 15:20:00,SystemResetWarning,0829.3,5.00,000.00,028.3,027.0,000.0,036.7,030.0,21.9,0000.0,0010.36,0004.98,0003.97
2023-10-02 15:21:00,SystemResetWarning,0829.4,4.99,000.00,028.3,027.0,000.0,036.7,030.0,21.9,0000.0,0010.18,0004.96,0003.97
2023-10-02 15:22:00,SystemResetWarning,0829.3,4.99,000.00,028.3,027.0,000.0,036.7,030.0,21.9,0000.0,0009.59,0004.96,0003.98
2023-10-02 15:23:00,SystemResetWarning,0829.2,4.99,000.00,028.3,027.0,000.0,036.7,030.1,21.9,0000.0,0009.85,0005.04,0003.99
2023-10-02 15:24:00,SystemResetWarning,0829.1,5.01,000.00,028.4,027.1,000.0,036.7,030.1,21.9,0000.0,0010.53,0005.13,0004.03
2023-10-02 15:25:00,SystemResetWarning,0829.2,5.00,000.00,028.4,027.1,000.0,036.7,030.1,21.9,0000.0,0010.69,0005.13,0004.04
2023-10-02 15:26:00,SystemResetWarning,0829.1,4.99,000.00,028.4,027.1,000.0,036.8,030.1,21.9,0000.0,0010.93,0005.18,0004.06
2023-10-02 15:27:00,SystemResetWarning,0829.1,5.00,000.00,028.4,027.1,000.0,036.8,030.2,21.9,0000.0,0011.00,0005.20,0004.08
2023-10-02 15:28:00,SystemResetWarning,0829.1,5.01,000.00,028.4,027.1,000.0,036.8,030.2,22.0,0000.0,0011.63,0005.23,0004.10
2023-10-02 15:29:00,SystemResetWarning,0829.1,5.01,000.00,028.4,027.1,000.0,036.8,030.2,21.9,0000.0,0012.21,0005.19,0004.11
2023-10-02 15:30:00,SystemResetWarning,0829.1,5.00,000.00,028.4,027.2,000.0,036.8,030.2,22.0,0000.0,0012.92,0005.16,0004.11
2023-10-02 15:31:00,SystemResetWarning,0829.1,5.00,000.00,028.4,027.2,000.0,036.8,030.2,22.0,0000.0,0012.96,0005.12,0004.11
2023-10-02 15:32:00,SystemResetWarning,0829.1,5.00,000.00,028.5,027.2,000.0,036.8,030.2,22.0,0000.0,0012.93,0005.15,0004.12
2023-10-02 15:33:00,SystemResetWarning,0829.1,5.00,000.00,028.5,027.2,000.0,036.8,030.2,21.9,0000.0,0014.23,0005.18,0004.12
2023-10-02 15:34:00,SystemResetWarning,0829.2,4.99,000.00,028.5,027.2,000.0,036.8,030.2,21.9,0000.0,0014.18,0005.16,0004.11
2023-10-02 15:35:00,SystemResetWarning,0829.1,4.99,000.00,028.5,027.2,000.0,036.8,030.2,21.9,0000.0,0013.85,0005.13,0004.09
2023-10-02 15:36:00,SystemResetWarning,0829.2,5.00,000.00,028.5,027.2,000.0,036.9,030.2,21.9,0000.0,0013.55,0005.11,0004.08
2023-10-02 15:37:00,SystemResetWarning,0829.2,5.00,000.00,028.5,027.2,000.0,036.9,030.3,22.1,0000.0,0013.60,0005.11,0004.07
2023-10-02 15:38:00,SystemResetWarning,0829.3,5.00,000.00,028.5,027.2,000.0,036.9,030.2,22.0,0000.0,0013.73,0005.13,0004.05
2023-10-02 15:39:00,SystemResetWarning,0829.4,5.00,000.00,028.5,027.2,000.0,036.9,030.2,22.1,0000.0,0013.29,0005.08,0004.02
2023-10-02 15:40:00,SystemResetWarning,0829.4,5.00,000.00,028.5,027.2,000.0,036.9,030.2,22.3,0000.0,0012.89,0005.12,0004.01
2023-10-02 15:41:00,SystemResetWarning,0829.3,5.01,000.00,028.5,027.2,000.0,036.9,030.3,22.4,0000.0,0012.61,0005.17,0004.00
2023-10-02 15:42:00,SystemResetWarning,0829.3,5.00,000.00,028.5,027.2,000.0,036.9,030.3,22.9,0000.0,0012.33,0005.18,0003.99
2023-10-02 15:43:00,SystemResetWarning,0829.3,5.00,000.00,028.6,027.3,000.0,036.9,030.3,22.5,0000.0,0012.90,0005.17,0003.96
2023-10-02 15:44:00,SystemResetWarning,0829.3,5.00,000.00,028.6,027.3,000.0,036.9,030.3,22.4,0000.0,0011.99,0005.12,0003.95
2023-10-02 15:45:00,SystemResetWarning,0829.3,5.00,000.00,028.6,027.3,000.0,036.9,030.3,22.7,0000.0,0011.84,0005.02,0003.91
2023-10-02 15:46:00,SystemResetWarning,0829.4,5.00,000.00,028.6,027.3,000.0,036.9,030.3,22.6,0000.0,0012.32,0004.98,0003.88
2023-10-02 15:47:00,SystemResetWarning,0829.4,5.00,000.00,028.6,027.3,000.0,037.0,030.3,22.7,0000.0,0012.25,0004.92,0003.85
2023-10-02 15:48:00,SystemResetWarning,0829.3,5.00,000.00,028.6,027.3,000.0,037.0,030.3,22.7,0000.0,0012.12,0004.90,0003.82
2023-10-02 15:49:00,SystemResetWarning,0829.3,5.00,000.00,028.6,027.3,000.0,037.0,030.4,22.5,0000.0,0011.74,0004.81,0003.80
2023-10-02 15:50:00,SystemResetWarning,0829.3,5.00,000.00,028.6,027.4,000.0,037.0,030.4,22.5,0000.0,0011.61,0004.78,0003.79
2023-10-02 15:51:00,SystemResetWarning,0829.3,4.99,000.00,028.6,027.4,000.0,037.0,030.4,22.5,0000.0,0011.43,0004.72,0003.76
2023-10-02 15:52:00,SystemResetWarning,0829.2,4.99,000.00,028.7,027.4,000.0,037.0,030.4,22.4,0000.0,0010.98,0004.66,0003.73
2023-10-02 15:53:00,SystemResetWarning,0829.2,4.99,000.00,028.7,027.4,000.0,037.0,030.4,22.5,0000.0,0011.05,0004.64,0003.72
2023-10-02 15:54:00,SystemResetWarning,0829.2,5.00,000.00,028.7,027.4,000.0,037.0,030.4,22.5,0000.0,0010.42,0004.60,0003.71
2023-10-02 15:55:00,SystemResetWarning,0829.3,5.00,000.00,028.7,027.5,000.0,037.1,030.4,22.4,0000.0,0010.14,0004.56,0003.69
2023-10-02 15:56:00,SystemResetWarning,0829.3,5.01,000.00,028.7,027.5,000.0,037.1,030.5,22.5,0000.0,0009.85,0004.59,0003.69
2023-10-02 15:57:00,SystemResetWarning,0829.4,5.00,000.00,028.7,027.5,000.0,037.1,030.5,22.6,0000.0,0009.14,0004.61,0003.70
2023-10-02 15:58:00,SystemResetWarning,0829.4,5.00,000.00,028.7,027.5,000.0,037.1,030.5,22.6,0000.0,0008.90,0004.58,0003.70
2023-10-02 15:59:00,SystemResetWarning,0829.4,5.01,000.00,028.8,027.5,000.0,037.1,030.5,22.7,0000.0,0008.77,0004.53,0003.69
